TERRA

Last updated on Tue Oct 21 2025 00:02:15 GMT+0000 (Coordinated Universal Time)

1 25994U 99068A 25293.67164726 .00000929 00000+0 19903-3 0 9995 2 25994 97.9829 347.2805 0000918 258.6500 260.2788 14.60861401374635
UTC large
Height (km)
Speed (km/s)
/
Latitude / Longitude
Inclination (degrees)
Orbital Period (minutes)
Azimuth
Elevation
Range (km)
Doppler Factor

Next 0 passes for location: London (51.5072 / 0.1276)

Sorry there are no passes over London.